Погода в Асуане

Египет     24°05′08″N   32°54′40″E
темп.,
°C
ветер,
м/с
пор.,
м/с
влажн.,
%
обл.,
%
осадки,
мм/ч
давл.,
гПа
погр.,
м
23 октября, сб
сб2323:00+23с611320 0.0 1017238
02:00+21с611420 0.0 1016206
05:00+20с48490 0.0 1016133
08:00+23с67380 0.0 1017371
11:00+30с55220 0.0 1016793
14:00+33ссз66170 0.0 10141026
17:00+30с57200 0.0 1014117
20:00+26с511250 0.0 1016189
24 октября, вс
вс2423:00+24с59330 0.0 1016147
02:00+22с59380 0.0 1015143
05:00+20с47430 0.0 1015104
08:00+24с67360 0.0 1016360
11:00+30с54240 0.0 1015920
14:00+32ссз44170 0.0 10121246
17:00+30ссз57160 0.0 1012113
20:00+26с511210 0.0 1014170
25 октября, пн
пн2523:00+23с59260 0.0 1014150
02:00+21с58300 0.0 1013130
05:00+20с46350 0.0 101496
08:00+23с45270 0.0 1014288
11:00+30с44180 0.0 1013801
14:00+32ссз32140 0.0 10101205
17:00+30ссз45160 0.0 101152
20:00+27с56200 0.0 101267
26 октября, вт
вт2623:00+24с59250 0.0 1013149
02:00+22с57265 0.0 101296
05:00+21с453161 0.0 101265
08:00+25с45355 0.0 1013301
11:00+31с33274 0.0 1012933
14:00+34ссз32205 0.0 10091613
17:00+31сз57185 0.0 100993
20:00+28с57201 0.0 101181
27 октября, ср
ср2723:00+26ссв46265 0.0 101181
02:00+24ссв465215 0.0 101093
05:00+24ссв454779 0.0 101175
08:00+27св45310 0.0 1012368
11:00+32св33220 0.0 10111157
14:00+35с33190 0.0 10092572
17:00+33ссз56210 0.0 100974
20:00+29с611250 0.0 1011166